Regional Weather Roundup
Issued by NWS

Home | Current Version | Previous Version | Text Only | Print | Product List | Glossary On
Versions: 1 2 3 4 5 6 7 8 9 10 11 12 13 14 15 16 17 18 19 20 21 22 23 24 25 26 27 28 29 30 31 32 33 34 35 36 37 38 39 40 41 42 43 44 45 46 47 48 49 50
000
ASUS46 KSEW 010010
RWRWA

WASHINGTON REGIONAL WEATHER ROUNDUP
NATIONAL WEATHER SERVICE SEATTLE WA
500 PM PDT FRI JUL 31 2015

NOTE:"FAIR" INDICATES FEW OR NO CLOUDS BELOW 12,000 FEET WITH NO
SIGNIFICANT WEATHER AND/OR OBSTRUCTIONS TO VISIBILITY.

WAZ505-507>509-010100-
SEATTLE, TACOMA, EVERETT, AND VICINITY

CITY           SKY/WX    TMP DP  RH WIND       PRES   REMARKS
EVERETT        SUNNY     84  49  29 N9        30.04F
6HR MIN TEMP:  74; 6HR MAX TEMP:  87;

BOEING FIELD   SUNNY     93  41  16 W7        29.98F
6HR MIN TEMP:  81; 6HR MAX TEMP:  94;

RENTON         SUNNY     92  46  20 NW6       29.98F
6HR MIN TEMP:  80; 6HR MAX TEMP:  92;

SEATAC AIRPORT MOSUNNY   94  43  17 NW7       30.02F HX  90
6HR MIN TEMP:  81; 6HR MAX TEMP:  94;

JBLM-MCCHORD   SUNNY     95  37  13 CALM      29.99F HX  90
6HR MIN TEMP:  83; 6HR MAX TEMP:  95; 6HR PCP: TRACE;

PUYALLUP       FAIR      95  36  12 CALM      30.01F HX  90
BREMERTON      SUNNY     91  50  24 NE12      30.02F
6HR MIN TEMP:  82; 6HR MAX TEMP:  93;

JBLM-FT LEWIS  SUNNY     96  37  13 VRB6      29.98F HX  91
6HR MIN TEMP:  83; 6HR MAX TEMP:  96;

TACOMA NARROWS SUNNY     91  43  18 NE6       29.99F
6HR MIN TEMP:  78; 6HR MAX TEMP:  93;

$$

WAZ001-503-506-510-514-515-010100-
NORTH INTERIOR

CITY           SKY/WX    TMP DP  RH WIND       PRES   REMARKS
BELLINGHAM     SUNNY     84  50  30 W6        30.01F
6HR MIN TEMP:  74; 6HR MAX TEMP:  87;

FRIDAY HARBOR  SUNNY     77  48  35 SW9       30.03F
6HR MIN TEMP:  70; 6HR MAX TEMP:  84;

EASTSOUND      SUNNY     73  57  56 N5        30.00F
PORT ANGELES   SUNNY     74  49  41 NW7       30.05F
6HR MIN TEMP:  71; 6HR MAX TEMP:  78;

PORT TOWNSEND  FAIR      84  41  21 NW8       30.02F
NAS WHIDBEY    MOSUNNY   64  53  67 W7        30.07F
6HR MIN TEMP:  62; 6HR MAX TEMP:  67;

ARLINGTON      SUNNY     90  48  24 NW12      30.00F
6HR MIN TEMP:  77; 6HR MAX TEMP:  90;

BURLINGTON     SUNNY     84  54  34 W9        30.01F
$$

WAZ020-022-039-040-504-511-512-010100-
SOUTHWEST INTERIOR

CITY           SKY/WX    TMP DP  RH WIND       PRES   REMARKS
SHELTON        SUNNY     94  46  19 SW14G22   29.97F HX  90
6HR MIN TEMP:  82; 6HR MAX TEMP:  97;

OLYMPIA        SUNNY     97  44  16 N7        29.97F HX  93
6HR MIN TEMP:  80; 6HR MAX TEMP:  98;

CHEHALIS       FAIR      97  54  23 VRB6G20   29.98F HX  94
KELSO          SUNNY     95  57  28 NW8       29.99F HX  94
6HR MIN TEMP:  79; 6HR MAX TEMP:  97;

VANCOUVER      SUNNY    100  35  10 N9G18     29.93F HX  94
6HR MIN TEMP:  83; 6HR MAX TEMP: 101;

SCAPPOOSE, OR  SUNNY    100  35  10 N14       29.94F HX  94
6HR MIN TEMP:  83; 6HR MAX TEMP: 101;

PORTLAND, OR   MOSUNNY  100  41  13 NW6       29.93F HX  95
6HR MIN TEMP:  82; 6HR MAX TEMP: 101;

$$

WAZ021-516-517-010100-
WASHINGTON COAST

CITY           SKY/WX    TMP DP  RH WIND       PRES   REMARKS
FORKS          SUNNY     78  53  41 VRB7      30.06F
6HR MIN TEMP:  72; 6HR MAX TEMP:  81;

HOQUIAM        SUNNY     71  59  65 SW20      30.06F
6HR MIN TEMP:  65; 6HR MAX TEMP:  76;

ASTORIA, OR    SUNNY     76  56  49 NW14      30.04F
6HR MIN TEMP:  71; 6HR MAX TEMP:  78;

$$

WAZ019-023-024-040-518-519-010100-
CASCADE MOUNTAINS AND COLUMBIA GORGE

CITY           SKY/WX    TMP DP  RH WIND       PRES   REMARKS
TROUTDALE, OR  SUNNY    101  30   8 W5        29.92F HX  94
THE DALLES, OR SUNNY    107  32   7 W15       29.85F HX 100
6HR MIN TEMP:  85; 6HR MAX TEMP: 109;

$$

WAZ026-027-041>044-520-521-010100-
EAST SLOPES

CITY           SKY/WX    TMP DP  RH WIND       PRES   REMARKS
OMAK           SUNNY    103  26   6 S9        29.90F HX  96
6HR MIN TEMP:  89; 6HR MAX TEMP: 104;

WENATCHEE      SUNNY    104  31   8 SE7       29.90F HX  97
6HR MIN TEMP:  86; 6HR MAX TEMP: 104;

ELLENSBURG     SUNNY    104  33   8 NW18      29.96F HX  97
6HR MIN TEMP:  86; 6HR MAX TEMP: 105; 6HR PCP: TRACE;

YAKIMA         SUNNY    106  34   8 E5        29.90F HX  99
6HR MIN TEMP:  91; 6HR MAX TEMP: 107;

$$

WAZ028-034-035-010100-
COLUMBIA BASIN

CITY           SKY/WX    TMP DP  RH WIND       PRES   REMARKS
EPHRATA        SUNNY    103  36  10 SW12      29.92F HX  97
6HR MIN TEMP:  94; 6HR MAX TEMP: 103;

MOSES LAKE     SUNNY    103  35   9 VRB5      29.93F HX  97
6HR MIN TEMP:  92; 6HR MAX TEMP: 103;

PASCO          SUNNY    108  40  10 VRB6      29.86F HX 102
6HR MIN TEMP:  88; 6HR MAX TEMP: 108;

HERMISTON, OR  MOSUNNY  105  33   8 VRB3      29.88F HX  98
6HR MIN TEMP:  87; 6HR MAX TEMP: 106;

$$

WAZ036>038-010100-
NORTHEAST WASHINGTON

CITY           SKY/WX    TMP DP  RH WIND       PRES   REMARKS
SPOKANE GEIGER PTSUNNY   98  22   6 SW15G21   30.00F HX  91
6HR MIN TEMP:  88; 6HR MAX TEMP: 100;

SPOKANE FELTS  SUNNY    100  28   8 W9        29.97F HX  93
6HR MIN TEMP:  87; 6HR MAX TEMP: 102;

FAIRCHILD AFB  SUNNY     98  19   6 SW12G20   30.01F HX  91
6HR MIN TEMP:  90; 6HR MAX TEMP: 100; 6HR PCP: TRACE;

COEURDALENE,ID SUNNY     99  34  10 SW12G21   29.98F HX  93
6HR MIN TEMP:  84; 6HR MAX TEMP: 100;

DEER PARK      SUNNY     99  27   8 SW8       29.99F HX  92
6HR MIN TEMP:  86; 6HR MAX TEMP: 102;

$$

WAZ029>033-010100-
SOUTHEAST WASHINGTON

CITY           SKY/WX    TMP DP  RH WIND       PRES   REMARKS
PULLMAN        SUNNY     98  29   8 W13       30.05F HX  92
6HR MIN TEMP:  90; 6HR MAX TEMP: 100;

LEWISTON, ID   SUNNY    105  30   7 NE6       29.93F HX  98
6HR MIN TEMP:  87; 6HR MAX TEMP: 106;

WALLA WALLA    SUNNY    105  31   7 CALM      29.92F HX  98
6HR MIN TEMP:  92; 6HR MAX TEMP: 106;

PENDLETON, OR  SUNNY    102  30   8 NW12      29.94F HX  95
6HR MIN TEMP:  92; 6HR MAX TEMP: 104;

$$



USA.gov is the U.S. government's official web portal to all federal, state and local government web resources and services.